Terminal Aerodrome Forecast
Issued by NWS Jackson, MS

Home | Current Version | Previous Version | Text Only | Print | Product List | Glossary On
Versions: 1 2 3 4 5 6 7 8 9 10 11 12 13 14 15
679
FTUS44 KJAN 270527
TAFGWO
TAF
KGWO 270527Z 2706/2806 16008KT P6SM VCSH OVC050
     FM270800 18009KT 6SM SHRA VCTS OVC050CB
     FM271000 VRB05G15KT 3SM SHRA BR VCTS BKN012CB OVC020
     FM271300 11008KT 5SM -SHRA BR BKN008 BKN030
     FM271800 14010KT P6SM SCT008 BKN015
     FM280000 15010KT 4SM BR BKN010=

USA.gov is the U.S. government's official web portal to all federal, state and local government web resources and services.